Location: Anderson Marsh State Historic Park
(38.9255°N, 122.6333°W)
Time: 09:21:45
(UTC+00:00)

Daily predictions for brighter satellites

Satellite Brightness Start Highest point End
(mag) Time Altitude Azimuth Time Altitude Azimuth Time Altitude Azimuth
STARLINK-1025 3.8 12:04:32 58° SSE 12:04:56 62° SE 12:09:02 10° NE
deb Chang Zheng 4 3.8 12:00:45 10° N 12:04:35 52° NW 12:04:35 52° NW
Cosmos 990 Rocket 4.5 12:07:55 39° WNW 12:07:58 39° WNW 12:12:47 10° N
COSMOS 2441 4.2 12:03:18 10° NNE 12:08:07 89° WNW 12:10:09 35° SSW
STARLINK-1017 3.7 12:09:19 58° S 12:09:55 69° SE 12:14:02 10° NE
Lacrosse 5 rocket 2.0 12:10:59 35° NNW 12:10:59 35° NNW 12:14:23 10° NNE
Cosmos 2242 Rocket 3.8 12:12:34 50° W 12:12:44 51° W 12:17:13 10° N
Cosmos 158 Rocket 4.1 12:09:18 10° NNW 12:14:21 48° WSW 12:16:58 26° SSW
CBERS 1 LM4 rocket 4.3 12:12:52 10° N 12:17:39 68° WNW 12:19:49 33° SSW
ASTRO E2 4.2 12:18:30 23° S 12:18:41 23° S 12:21:53 10° ESE
STARLINK-81 3.5 12:18:03 54° SW 12:18:53 81° SE 12:22:56 10° NE
ADEOS II 4.1 12:18:14 10° NW 12:19:32 12° NW 12:19:32 12° NW
STARLINK-54 3.4 12:19:55 55° SW 12:20:45 88° NW 12:24:47 10° NE
STARLINK-1306 4.4 12:21:42 22° N 12:21:42 22° N 12:23:16 10° NNE
BREEZE M DEB (TANK) 2.3 12:22:20 54° NNE 12:22:20 54° NNE 12:24:53 10° NE
STARLINK-77 3.4 12:21:15 51° SW 12:22:13 86° SE 12:26:16 10° NE
STARLINK-25 3.4 12:22:51 49° SW 12:23:53 89° SE 12:27:55 10° NE
ARIANE 5 R/B 4.3 12:20:56 10° NNW 12:23:34 16° NW 12:23:34 16° NW
CENTAUR R/B 4.4 12:20:03 10° SSE 12:24:34 25° ESE 12:29:35 10° NE
STARLINK-1048 3.5 12:23:40 46° SW 12:24:50 88° NW 12:29:00 10° NE
STARLINK-71 3.4 12:24:42 48° WSW 12:25:44 79° NW 12:29:46 10° NE
STARLINK-1023 3.6 12:25:07 45° WSW 12:26:19 78° NW 12:30:32 10° NE
STARLINK-79 3.4 12:26:01 46° SW 12:27:10 85° NW 12:31:12 10° NE
Cosmos 2333 Rocket 2.4 12:22:14 10° NW 12:27:36 45° WSW 12:32:56 10° S
STARLINK-78 3.4 12:27:39 44° WSW 12:28:52 82° NW 12:32:54 10° NE
STARLINK-1049 3.5 12:28:26 41° WSW 12:29:47 80° NW 12:33:57 10° NE
Okean 1 3.3 12:28:34 38° SW 12:29:49 57° W 12:33:45 10° N
STARLINK-57 3.5 12:29:22 42° WSW 12:30:36 75° NW 12:34:38 10° NE
SeaSat 1 2.4 12:26:36 10° SSE 12:31:29 65° WSW 12:36:24 10° NNW
STARLINK-49 3.5 12:30:48 40° WSW 12:32:08 77° NW 12:36:10 10° NE
STARLINK-27 3.5 12:32:23 39° WSW 12:33:47 74° NW 12:37:49 10° NE
Cosmos 1975 3.1 12:29:50 10° N 12:33:49 68° E 12:37:49 10° SSE
Cosmos 2279 Rocket 3.9 12:28:03 10° N 12:34:18 87° W 12:40:33 10° S
STARLINK-1051 3.6 12:33:13 37° WSW 12:34:46 73° NW 12:38:55 10° NE
STARLINK-74 3.5 12:33:57 37° WSW 12:35:25 72° NW 12:39:27 10° NE
BREEZE-M DEB (TANK) 2.7 12:31:08 10° NW 12:35:56 90° E 12:40:04 10° SE
Cosmos 1515 3.6 12:32:31 12° S 12:35:59 84° E 12:39:48 10° N
Cosmos 1743 2.7 12:32:30 10° NNW 12:36:19 55° W 12:40:06 10° S
STARLINK-39 3.5 12:35:34 36° WSW 12:37:05 69° NW 12:41:07 10° NE
SL-4 R/B 2.4 12:34:54 12° NW 12:38:33 66° NE 12:42:53 10° ESE
Cosmos 1544 3.9 12:35:01 10° N 12:38:35 52° E 12:42:07 10° SSE
STARLINK-31 3.6 12:37:11 34° WSW 12:38:46 67° NW 12:42:48 10° NE
MSX 4.2 12:34:32 10° N 12:39:58 44° WNW 12:43:47 19° SW
STARLINK-69 3.7 12:39:01 32° WSW 12:40:37 59° NW 12:44:36 10° NE
STARLINK-21 3.6 12:40:24 31° WSW 12:42:07 62° NW 12:46:07 10° NE
NOSS 0 Rocket 3.8 12:37:47 10° NNW 12:43:56 71° WSW 12:50:02 10° SSE
STARLINK-45 3.8 12:42:15 29° W 12:44:00 54° NW 12:47:57 10° NE
GPS 2-04 Rocket1 3.0 12:43:10 30° WSW 12:44:33 45° S 12:48:05 10° ESE
STARLINK-1028 3.7 12:42:48 29° WSW 12:44:45 60° NW 12:48:52 10° NE
Cosmos 2180 Rocket 4.5 12:39:06 10° N 12:45:19 90° SE 12:51:33 10° S
STARLINK-70 3.8 12:43:42 28° WSW 12:45:32 55° NW 12:49:30 10° NE
STARLINK-1007 3.8 12:44:05 27° WSW 12:46:07 57° NW 12:50:16 10° NE
STARLINK-76 3.8 12:45:10 27° WSW 12:47:05 56° NW 12:51:03 10° NE
H-2A R/B 3.3 12:44:36 10° NNE 12:48:43 51° E 12:52:38 10° S
STARLINK-23 3.8 12:46:45 26° WSW 12:48:45 54° NW 12:52:42 10° NE
Meteor 2-4 Rocket 4.1 12:42:57 10° S 12:48:49 74° E 12:54:45 10° NNE
PSLV R/B 4.4 12:45:21 10° N 12:49:11 31° WNW 12:51:07 22° WSW
STARLINK-1021 3.9 12:47:34 25° WSW 12:49:44 55° NW 12:53:48 10° NE
STARLINK-32 3.8 12:48:22 25° WSW 12:50:24 52° NW 12:54:22 10° NE
IDEFIX/ARIANE 42P 3.9 12:48:10 10° NNW 12:51:59 21° WNW 12:53:43 18° W
STARLINK-40 3.9 12:49:57 24° WSW 12:52:04 51° NW 12:56:01 10° NE
STARLINK-44 3.9 12:51:32 23° WSW 12:53:44 49° NW 12:57:39 10° NE
STARLINK-1019 4.0 12:52:22 22° WSW 12:54:44 50° NW 12:58:47 10° NE
STARLINK-37 4.1 12:53:16 22° W 12:55:31 45° NW 12:59:24 10° NE
CZ-4B R/B 3.4 12:52:18 10° NNE 12:56:26 68° E 13:00:46 10° S
STARLINK-36 4.0 12:54:41 21° W 12:57:01 46° NW 13:00:55 10° NE
Cosmos 1782 Rocket 3.9 12:54:05 10° NNW 12:58:11 42° W 13:02:15 10° SSW
Cosmos 2237 Rocket 2.1 12:52:41 10° NNW 12:58:22 79° WSW 13:04:02 10° SSE
CZ-2C R/B 2.6 12:54:07 10° N 12:58:30 45° WNW 13:02:50 10° SW
STARLINK-68 4.2 12:56:33 20° W 12:58:56 41° NW 13:02:46 10° NE
STARLINK-1012 4.1 12:57:09 20° WSW 12:59:43 46° NW 13:03:44 10° NE
STARLINK-63 4.2 12:58:01 19° W 13:00:28 42° NW 13:04:19 10° NE
ALOS 3.2 12:56:42 10° NNE 13:01:17 52° E 13:05:50 10° S
Cosmos 1484 Rocket 2.9 12:57:42 10° NNE 13:01:36 74° ESE 13:05:23 10° S
STARLINK-35 4.2 12:59:28 19° W 13:02:01 42° NW 13:05:52 10° NE
STARLINK-51 4.2 13:01:04 18° W 13:03:41 41° NW 13:07:31 10° NE
STARLINK-30 4.2 13:02:39 17° W 13:05:21 40° NW 13:09:10 10° NE
ATLAS CENTAUR R/B 0.2 13:05:08 26° WSW 13:05:55 56° NW 13:07:58 10° NE
Cosmos 2221 Rocket 3.6 13:01:52 10° SSW 13:06:19 65° W 13:10:45 10° N
STARLINK-72 4.3 13:04:14 17° W 13:06:59 39° NNW 13:10:47 10° NE
STARLINK-50 4.3 13:05:51 16° W 13:08:41 38° NNW 13:12:28 10° NE
STARLINK-1026 4.4 13:06:42 15° W 13:09:43 39° NNW 13:13:38 10° NE
STARLINK-59 4.4 13:07:34 15° W 13:10:27 35° NNW 13:14:11 10° NE
Cosmos 2219 3.8 13:06:20 12° SW 13:11:14 37° WNW 13:16:33 10° N
ATLAS 3B R/B 4.3 13:05:58 10° S 13:11:53 34° ESE 13:17:45 10° NE
USA 238 DEB 3.7 13:05:21 10° SW 13:11:58 71° NW 13:18:49 10° NNE
STARLINK-1020 4.5 13:08:02 10° SSW 13:12:00 48° SE 13:16:00 10° ENE
STARLINK-56 4.4 13:09:02 15° W 13:12:00 36° NNW 13:15:45 10° NE
USA 238 3.7 13:05:28 10° SW 13:12:04 72° NW 13:18:56 10° NNE
STARLINK-73 4.5 13:10:37 14° W 13:13:39 35° NNW 13:17:23 10° NE
STARLINK-1013 4.5 13:11:31 14° W 13:14:44 36° NNW 13:18:36 10° NE
COSMO-SKYMED 1 3.2 13:11:53 10° SSE 13:16:09 61° ENE 13:20:26 10° N
STARLINK-1052 4.3 13:12:57 10° SSW 13:16:58 53° SE 13:21:01 10° ENE
ADEOS 4.5 13:12:56 10° N 13:17:22 29° WNW 13:21:47 10° SW
Cosmos 2297 Rocket 2.6 13:12:05 10° SW 13:17:27 44° WNW 13:22:53 10° N
Meteor 2-9 Rocket 4.4 13:11:57 10° NNW 13:17:38 53° W 13:23:18 10° S
Sich 1 Rocket 4.0 13:14:01 10° NNW 13:18:05 38° W 13:22:07 10° SSW
Cosmos 389 Rocket 2.8 13:15:54 10° SSW 13:19:23 46° WNW 13:22:51 10° N
METEOR-M 4.4 13:14:34 10° NNE 13:19:57 76° ESE 13:25:16 10° S
STARLINK-1033 4.0 13:22:47 10° SW 13:26:53 66° SE 13:31:00 10° NE
Okean O Rocket 3.8 13:23:01 10° NE 13:26:55 30° E 13:30:49 10° SSE
Cosmos 1689 Rocket 4.2 13:27:30 10° WSW 13:28:05 10° W 13:28:41 10° W
Okean 3 4.1 13:25:06 10° SW 13:28:57 35° WNW 13:32:48 10° N
COSMOS 2428 4.2 13:26:48 10° WNW 13:29:48 15° W 13:32:47 10° SW
Cosmos 2151 Rocket 3.5 13:27:29 10° NNW 13:31:53 71° W 13:36:14 10° S
ADEOS Rocket 4.3 13:24:53 10° SSE 13:32:28 62° ENE 13:40:02 10° N
Okean 2 Rocket 3.4 13:28:22 10° NNW 13:32:39 45° W 13:36:56 10° SSW
PSLV R/B 3.9 13:29:12 10° NNE 13:33:20 87° WNW 13:37:26 10° SSW
Cosmos 1674 Rocket 3.6 13:31:40 10° SSW 13:36:06 76° W 13:40:32 10° N
